EW5550 Weather Reports


Display with metric or nautical units.
time (UTC)temp
F
wind
direction
speed
MPH
gust
MPH
rain 1hr
in
rain 24hr
in
rain mn
in
humidity
%
barometer
mb
20190220094503 45 224 3.0 9.0 0.00 0.00 0.00 47 1022.9
20190220093515 45 218 4.0 9.0 0.00 0.00 0.00 47 1022.7
20190220092517 45 255 1.0 7.0 0.00 0.00 0.00 48 1022.9
20190220091007 44 192 3.0 9.0 0.00 0.00 0.00 48 1022.7
20190220090018 43 212 3.0 7.0 0.00 0.00 0.00 48 1022.7
20190220085005 43 209 3.0 9.0 0.00 0.00 0.00 49 1022.6
20190220084013 43 204 3.0 7.0 0.00 0.00 0.00 50 1022.4
20190220083008 42 192 3.0 9.0 0.00 0.00 0.00 50 1022.4
20190220082013 42 215 4.0 7.0 0.00 0.00 0.00 51 1022.2
20190220081005 41 209 3.0 9.0 0.00 0.00 0.00 53 1022.2
20190220080013 41 191 1.0 7.0 0.00 0.00 0.00 54 1022.1
20190220075008 41 181 2.0 7.0 0.00 0.00 0.00 54 1022.1
20190220074014 41 198 3.0 7.0 0.00 0.00 0.00 55 1022.1
20190220073005 40 201 3.0 7.0 0.00 0.00 0.00 55 1021.8
20190220072013 40 190 2.0 7.0 0.00 0.00 0.00 55 1021.8
20190220071007 40 198 4.0 12.0 0.00 0.00 0.00 57 1021.6
20190220070014 40 180 3.0 7.0 0.00 0.00 0.00 57 1021.5
20190220065005 40 174 3.0 7.0 0.00 0.00 0.00 56 1021.5
20190220064015 40 188 3.0 7.0 0.00 0.00 0.00 57 1021.3
20190220063004 39 192 3.0 7.0 0.00 0.00 0.00 57 1021.2
20190220062014 39 192 4.0 9.0 0.00 0.00 0.00 57 1020.9
20190220061006 39 209 4.0 9.0 0.00 0.00 0.00 57 1021.1
20190220060013 39 189 4.0 9.0 0.00 0.00 0.00 58 1020.8
20190220055003 39 191 3.0 9.0 0.00 0.00 0.00 58 1020.7
20190220054013 39 193 3.0 9.0 0.00 0.00 0.00 58 1020.5
20190220053004 38 207 5.0 9.0 0.00 0.00 0.00 58 1020.7
20190220052012 38 197 4.0 9.0 0.00 0.00 0.00 59 1020.6
20190220051006 38 195 3.0 7.0 0.00 0.00 0.00 60 1020.8
20190220050012 37 185 3.0 7.0 0.00 0.00 0.00 59 1020.7
20190220045004 37 200 3.0 7.0 0.00 0.00 0.00 61 1020.8
20190220044014 37 181 3.0 7.0 0.00 0.00 0.00 61 1020.8
20190220043006 37 182 2.0 7.0 0.00 0.00 0.00 60 1020.8
20190220042011 37 177 3.0 7.0 0.00 0.00 0.00 59 1020.8
20190220041004 37 182 3.0 9.0 0.00 0.00 0.00 60 1020.4
20190220040012 37 190 2.0 4.0 0.00 0.00 0.00 61 1020.8
20190220035004 37 183 2.0 7.0 0.00 0.00 0.00 61 1020.5
20190220034013 37 184 2.0 4.0 0.00 0.00 0.00 61 1020.4
20190220033005 37 183 3.0 7.0 0.00 0.00 0.00 60 1020.4
20190220032011 37 184 3.0 9.0 0.00 0.00 0.00 61 1020.4
20190220031003 37 175 2.0 4.0 0.00 0.00 0.00 61 1020.4
20190220030011 37 181 2.0 4.0 0.00 0.00 0.00 60 1020.5
20190220025004 36 191 2.0 4.0 0.00 0.00 0.00 57 1020.4
20190220024011 36 186 3.0 4.0 0.00 0.00 0.00 58 1020.4
20190220023020 36 186 4.0 7.0 0.00 0.00 0.00 57 1020.4
20190220022012 36 178 4.0 12.0 0.00 0.00 0.00 57 1020.4
20190220021020 37 188 5.0 9.0 0.00 0.00 0.00 57 1020.4
20190220020011 38 169 4.0 7.0 0.00 0.00 0.00 54 1020.5
20190220015020 38 178 5.0 9.0 0.00 0.00 0.00 57 1020.4
20190220014011 38 179 4.0 9.0 0.00 0.00 0.00 56 1020.4
20190220013004 38 185 4.0 7.0 0.00 0.00 0.00 56 1020.4
20190220012016 38 178 5.0 9.0 0.00 0.00 0.00 56 1020.5
20190220011019 38 178 4.0 7.0 0.00 0.00 0.00 57 1020.4
20190220010012 38 188 5.0 7.0 0.00 0.00 0.00 57 1020.5
20190220005020 38 189 5.0 9.0 0.00 0.00 0.00 56 1020.5
20190220004011 38 194 5.0 12.0 0.00 0.00 0.00 56 1020.6
20190220003020 39 184 5.0 9.0 0.00 0.00 0.00 55 1020.6
20190220002012 39 194 5.0 9.0 0.00 0.00 0.00 54 1020.4
20190220001005 39 199 6.0 9.0 0.00 0.00 0.00 54 1020.4
20190220000011 40 200 6.0 12.0 0.00 0.00 0.00 54 1020.4
20190219235019 40 200 7.0 12.0 0.00 0.00 0.00 53 1020.4
20190219234011 39 193 7.0 12.0 0.00 0.00 0.00 51 1020.4
20190219233018 39 207 6.0 15.0 0.00 0.00 0.00 53 1020.3
20190219232011 39 192 5.0 9.0 0.00 0.00 0.00 54 1020.3
20190219231018 39 200 5.0 12.0 0.00 0.00 0.00 55 1020.1
20190219230116 39 189 5.0 9.0 0.00 0.00 0.00 57 1020.1
20190219225145 39 185 3.0 7.0 0.00 0.00 0.00 56 1020.1
20190219224013 39 182 4.0 7.0 0.00 0.00 0.00 56 1020.1
20190219223731 40 188 4.0 9.0 0.00 0.00 0.00 55 1019.9
20190219222116 40 184 4.0 9.0 0.00 0.00 0.00 55 1019.8
20190219221041 40 199 5.0 9.0 0.00 0.00 0.00 55 1020.0
20190219220010 40 197 5.0 9.0 0.00 0.00 0.00 56 1019.8
20190219215244 40 197 4.0 9.0 0.00 0.00 0.00 56 1019.9
20190219214010 40 208 4.0 9.0 0.00 0.00 0.00 55 1019.8
20190219213017 41 202 5.0 12.0 0.00 0.00 0.00 55 1019.8
20190219212011 41 197 6.0 12.0 0.00 0.00 0.00 56 1019.9
20190219211018 41 197 4.0 9.0 0.00 0.00 0.00 56 1020.0
20190219210009 40 203 4.0 7.0 0.00 0.00 0.00 57 1019.7
20190219205018 40 193 4.0 9.0 0.00 0.00 0.00 58 1019.7
20190219204009 41 184 3.0 7.0 0.00 0.00 0.00 58 1019.7
20190219203017 41 191 3.0 7.0 0.00 0.00 0.00 59 1019.8
20190219202016 41 185 2.0 7.0 0.00 0.00 0.00 58 1019.7
20190219201018 41 199 3.0 9.0 0.00 0.00 0.00 56 1019.7
20190219200010 41 217 4.0 9.0 0.00 0.00 0.00 56 1019.5
20190219195020 42 188 3.0 7.0 0.00 0.00 0.00 56 1019.6
20190219194011 42 191 4.0 9.0 0.00 0.00 0.00 56 1019.6
20190219193018 42 180 2.0 9.0 0.00 0.00 0.00 55 1019.4
20190219192135 42 202 4.0 9.0 0.00 0.00 0.00 55 1019.4
20190219191017 42 209 3.0 7.0 0.00 0.00 0.00 55 1019.3
20190219190009 42 187 1.0 7.0 0.00 0.00 0.00 54 1019.0
20190219185018 42 200 2.0 7.0 0.00 0.00 0.00 53 1018.9
20190219184010 42 196 3.0 9.0 0.00 0.00 0.00 53 1018.8
20190219183018 42 187 4.0 9.0 0.00 0.00 0.00 52 1018.9
20190219182009 42 200 3.0 7.0 0.00 0.00 0.00 53 1018.9
20190219181017 42 201 2.0 4.0 0.00 0.00 0.00 53 1018.7
20190219180010 41 207 2.0 7.0 0.00 0.00 0.00 52 1018.7
20190219175018 41 212 3.0 7.0 0.00 0.00 0.00 53 1018.7
20190219174011 41 205 1.0 7.0 0.00 0.00 0.00 53 1018.5
20190219173017 41 194 0.0 4.0 0.00 0.00 0.00 53 1018.4
20190219172216 41 171 0.0 4.0 0.00 0.00 0.00 53 1018.6
20190219171019 42 171 0.0 2.0 0.00 0.00 0.00 52 1018.3
20190219170009 42 177 1.0 4.0 0.00 0.00 0.00 51 1018.4
20190219165017 43 208 1.0 7.0 0.00 0.00 0.00 51 1018.3
20190219164013 43 190 1.0 7.0 0.00 0.00 0.00 49 1018.2
20190219163020 44 184 3.0 7.0 0.00 0.00 0.00 48 1018.1
20190219162010 44 219 4.0 9.0 0.00 0.00 0.00 47 1018.1
20190219161019 45 212 3.0 9.0 0.00 0.00 0.00 47 1018.2
20190219160009 45 218 2.0 9.0 0.00 0.00 0.00 47 1018.3
20190219155019 46 211 2.0 7.0 0.00 0.00 0.00 47 1018.2
20190219154009 46 211 3.0 9.0 0.00 0.00 0.00 45 1018.3
20190219153019 47 224 3.0 12.0 0.00 0.00 0.00 45 1018.0
20190219152009 48 223 4.0 12.0 0.00 0.00 0.00 45 1018.0
20190219151018 48 234 3.0 7.0 0.00 0.00 0.00 45 1018.0
20190219150009 48 242 1.0 4.0 0.00 0.00 0.00 45 1018.1
20190219145017 48 258 4.0 17.0 0.00 0.00 0.00 46 1018.2
20190219144009 48 261 3.0 9.0 0.00 0.00 0.00 46 1017.8
20190219143016 47 233 4.0 15.0 0.00 0.00 0.00 45 1017.8
20190219142008 47 229 3.0 9.0 0.00 0.00 0.00 46 1018.0
20190219141017 47 258 2.0 9.0 0.00 0.00 0.00 46 1017.7
20190219140009 48 242 3.0 7.0 0.00 0.00 0.00 47 1017.6
20190219135017 47 243 5.0 12.0 0.00 0.00 0.00 47 1017.6
20190219134009 46 269 1.0 7.0 0.00 0.00 0.00 46 1017.6
20190219133018 46 241 4.0 12.0 0.00 0.00 0.00 48 1017.6
20190219132021 46 218 5.0 15.0 0.00 0.00 0.00 50 1017.3
20190219131017 45 218 6.0 15.0 0.00 0.00 0.00 51 1017.3
20190219130011 45 198 7.0 17.0 0.00 0.00 0.00 50 1017.5
20190219125023 45 207 8.0 17.0 0.00 0.00 0.00 48 1017.6
20190219124009 45 209 5.0 12.0 0.00 0.00 0.00 48 1017.8
20190219123017 45 210 5.0 15.0 0.00 0.00 0.00 48 1018.0
20190219122009 45 236 1.0 4.0 0.00 0.00 0.00 47 1017.9
20190219121018 45 226 3.0 12.0 0.00 0.00 0.00 47 1018.0
20190219120008 44 210 2.0 4.0 0.00 0.00 0.00 48 1018.0
20190219115016 44 210 4.0 9.0 0.00 0.00 0.00 48 1018.0
20190219114009 44 206 5.0 9.0 0.00 0.00 0.00 49 1018.2
20190219113016 44 208 5.0 9.0 0.00 0.00 0.00 50 1018.2
20190219112009 44 203 6.0 9.0 0.00 0.00 0.00 50 1018.2
20190219111018 44 190 1.0 7.0 0.00 0.00 0.00 50 1018.2
20190219110008 44 218 3.0 7.0 0.00 0.00 0.00 50 1018.2
20190219105021 44 206 4.0 9.0 0.00 0.00 0.00 50 1018.4
20190219104010 44 201 4.0 9.0 0.00 0.00 0.00 49 1018.5
20190219103018 44 200 4.0 12.0 0.00 0.00 0.00 48 1018.3
20190219102009 45 212 4.0 9.0 0.00 0.00 0.00 48 1018.3
20190219101017 45 223 4.0 9.0 0.00 0.00 0.00 47 1018.1
20190219100008 45 212 5.0 12.0 0.00 0.00 0.00 47 1018.2
20190219095016 46 224 3.0 9.0 0.00 0.00 0.00 46 1018.0